Notices

What's New in latest Release from April 7th, 2021:

- Updated Glossary, including Speed of Maximum Gust, and Total Hourly Precipitation

- Updated national and regional climate services offices contacts and prices information

- Addition of station inventory lists for 1981-2010, 1971-2000, and 1961-1990 Normals.

If you haven't already, please take our survey and provide feedback about our website: https://eccc.sondage-survey.ca/f/LanguageSelection.aspx?s=442ca660-fcf1-47c0-95a9-59707d6fd709

Hourly Data Report for January 27, 2021

EDMUNDSTON
NEW BRUNSWICK
Current Station Operator: ECCC - MSC

47°25'00.000" N
68°19'28.040" W
154.20 m
8101303
71590
ERM

Download Data

Hourly Data (January 2021)
Hourly Data Report for January 27, 2021
TIME
LST
Temp Definition
°C
Dew Point Definition
°C
Rel Hum Definition
%
Precip. Amount Definition
mm

Wind Dir Definition
10's deg

Wind Spd Definition
km/h
Visibility Definition
km
Stn Press Definition
kPa
Hmdx Definition


Wind Chill Definition


Weather Definition


00:00 -4.4 -5.7 90 0.0 0 1   99.85   -5 LegendNANA
01:00 -4.7 -5.9 91 0.0 0 1   99.82   -5 LegendNANA
02:00 -4.3 -5.4 92 0.0   0   99.82     LegendNANA
03:00 -4.2 -5.1 94 0.0 0 1   99.81   -5 LegendNANA
04:00 -4.3 -5.2 93 0.2   0   99.76     LegendNANA
05:00 -4.3 -5.2 94 0.0 27 3   99.77   -6 LegendNANA
06:00 -4.3 -5.3 93 0.0 34 2   99.77   -5 LegendNANA
07:00 -4.6 -5.5 94 0.0 30 1   99.81   -5 LegendNANA
08:00 -4.8 -5.8 93 0.0 3 1   99.87   -5 LegendNANA
09:00 -5.6 -6.8 92 0.0 34 2   99.94   -7 LegendNANA
10:00 -4.2 -5.4 92 0.0 36 1   99.95   -5 LegendNANA
11:00 0.7 -2.2 81 0.0   0   99.96     LegendNANA
12:00 -0.3 -3.7 78 0.0 23 5   99.91   -2 LegendNANA
13:00 -0.2 -4.0 76 0.0 28 5   99.85   -2 LegendNANA
14:00 -0.2 -4.5 73 0.0 31 6   99.80   -2 LegendNANA
15:00 0.4 -5.1 67 0.0 31 5   99.76     LegendNANA
16:00 0.3 -4.3 71 0.0 30 4   99.75     LegendNANA
17:00 -0.3 -4.3 75 0.0 35 6   99.76   -2 LegendNANA
18:00 -0.9 -4.2 78 0.0 29 2   99.81   -2 LegendNANA
19:00 -1.7 -4.1 84 0.0 0 1   99.83   -2 LegendNANA
20:00 -1.3 -4.2 80 0.0 31 4   99.83   -3 LegendNANA
21:00 -1.2 -3.9 82 0.0 29 5   99.81   -3 LegendNANA
22:00 -1.9 -4.3 84 0.0   0   99.78     LegendNANA
23:00 -2.8 -4.4 89 0.0 33 2   99.75   -4 LegendNANA

Notes on Data Quality.

Legend

  • E = Estimated
  • M = Missing
  • NA = Not Available*
  • [empty] = Indicates an unobserved value
Date modified: